Weather History for Auburn, CA

Change the Weather History Date:

Thursday, June 26, 2014

  Actual Average Record
Temperature  
Mean Temperature 62 °F -  
Max Temperature 64 °F 88 °F 108 °F (1961)
Min Temperature 59 °F 60 °F 46 °F (1952)
Degree Days  
Heating Degree Days 4    
Growing Degree Days 12 (Base 50)    
Moisture  
Dew Point 54 °F    
Average Humidity 79    
Maximum Humidity 88    
Minimum Humidity 68    
Precipitation  
Precipitation 0.00 in - - ()
Sea Level Pressure  
Sea Level Pressure 29.93 in    
Wind  
Wind Speed 9 mph (SSE)    
Max Wind Speed 12 mph    
Max Gust Speed -    
Visibility 10 miles    
Events      
Averages and records for this station are not official NWS values.
T = Trace of Precipitation, MM = Missing Value Source: NWS Daily Summary

Daily Weather History Graph

Daily Weather History Graph

Search for Another Location

Airport:

Trip Planner

Search our weather history database for the weather conditions in past years. The results will help you decide how hot, cold, wet, or windy it might be!

Date:

Astronomy

Jun. 26, 2014 Rise Set
Actual Time 5:40 AM PDT 8:33 PM PDT
Civil Twilight 5:08 AM PDT 9:05 PM PDT
Nautical Twilight 4:27 AM PDT 9:46 PM PDT
Astronomical Twilight 3:41 AM PDT 10:32 PM PDT
Moon 5:23 AM PDT (6/26) 7:59 PM PDT (6/26)
Length of Visible Light 15h 57m
Length of Day
14h 53m
Waning Crescent, 0% of the Moon is Illuminated
Jun 26
Waning Crescent
Jun 27
New
Jul 5
First Quarter
Jul 12
Full
Jul 18
Last Quarter

Hourly Weather History & Observations

Time (PDT) Temp. Dew Point Humidity Pressure Visibility Wind Dir Wind Speed Gust Speed Precip Events Conditions
12:15 AM 64.4 °F 53.6 °F 68% 29.95 in 10.0 mi SSE 8.1 mph - N/A   Scattered Clouds
12:35 AM 64.4 °F 53.6 °F 68% 29.94 in 10.0 mi SSE 9.2 mph - N/A   Mostly Cloudy
12:55 AM 62.6 °F 53.6 °F 72% 29.94 in 10.0 mi SSE 9.2 mph - N/A   Mostly Cloudy
1:15 AM 62.6 °F 53.6 °F 72% 29.94 in 10.0 mi SE 11.5 mph - N/A   Scattered Clouds
1:35 AM 62.6 °F 53.6 °F 72% 29.93 in 10.0 mi SSE 8.1 mph - N/A   Partly Cloudy
1:55 AM 62.6 °F 53.6 °F 72% 29.93 in 10.0 mi SE 9.2 mph - N/A   Scattered Clouds
2:15 AM 62.6 °F 53.6 °F 72% 29.93 in 10.0 mi SSE 10.4 mph - N/A   Mostly Cloudy
2:35 AM 60.8 °F 53.6 °F 77% 29.93 in 10.0 mi SSE 11.5 mph - N/A   Mostly Cloudy
2:55 AM 60.8 °F 53.6 °F 77% 29.93 in 10.0 mi SSE 9.2 mph - N/A   Mostly Cloudy
3:15 AM 60.8 °F 55.4 °F 82% 29.93 in 10.0 mi SSE 11.5 mph - N/A   Mostly Cloudy
3:35 AM 60.8 °F 55.4 °F 82% 29.92 in 10.0 mi SSE 8.1 mph - N/A   Mostly Cloudy
3:55 AM 60.8 °F 55.4 °F 82% 29.93 in 10.0 mi SSE 6.9 mph - N/A   Overcast
4:15 AM 60.8 °F 55.4 °F 82% 29.93 in 10.0 mi South 10.4 mph - N/A   Overcast
4:35 AM 60.8 °F 55.4 °F 82% 29.94 in 10.0 mi SSE 8.1 mph - N/A   Overcast
4:55 AM 60.8 °F 55.4 °F 82% 29.94 in 10.0 mi South 6.9 mph - N/A   Overcast
5:15 AM 60.8 °F 55.4 °F 82% 29.94 in 10.0 mi SSE 9.2 mph - N/A   Overcast
5:35 AM 59.0 °F 55.4 °F 88% 29.94 in 10.0 mi South 9.2 mph - N/A   Overcast
5:55 AM 59.0 °F 55.4 °F 88% 29.93 in 10.0 mi SE 9.2 mph - N/A   Overcast
6:15 AM 59.0 °F 55.4 °F 88% 29.93 in 10.0 mi SSE 11.5 mph - N/A   Overcast
6:35 AM 59.0 °F 53.6 °F 82% 29.94 in 10.0 mi SSE 9.2 mph - N/A   Overcast